sat.trackr.live / text

‹ back to catalog

NIGERIASAT-X

NORAD 37790 · 2011-044C

PAYLOAD ACTIVE UNKNOWN

§ Identity

Operator
Country
NIG
Launch date
2011-08-17
Launch site
DLS
Launch vehicle
Mass (kg)
RCS (m²)
0.21

External: N2YO · Heavens-Above · Gunter

§ Orbital elements

Epoch: 2026-09-12T20:58:17.339520Z

Period
98.57 min
Inclination
97.8651°
Eccentricity
0.0013562
Mean motion
14.60917469 rev/d
Perigee alt
680.6 km
Apogee alt
699.8 km
Semi-major
7,068.4 km
B*
5.5903e-5
RAAN
235.6265°
Arg perigee
61.5863°
Mean anomaly
298.6704°
Rev number
80,297

§ Raw data

NIGERIASAT-X1 37790U 11044C   26255.87381180  .00000230  00000+0  55903-4 0  99922 37790  97.8651 235.6265 0013562  61.5863 298.6704 14.60917469802978

JSON: /api/v1/satellites/37790 · /tle

For live sub-satellite position, see the globe view (requires WebGL).

§ Visibility from observer

Set your observer location to see the next 7 days of passes ≥ 10°. The values pass through the URL so the page stays shareable.

No JS? Fill the form by hand. The geolocation button needs JavaScript.